Miscellaneous Local Product
Issued by NWS Hastings, NE

Home | Current Version | Previous Version | Graphics & Text | Print | Product List | Glossary On
Versions: 1 2 3 4 5 6 7 8 9 10 11 12 13 14 15 16 17 18 19 20 21 22 23 24 25 26 27 28 29 30 31 32 33 34 35 36 37 38 39 40 41 42 43 44 45 46 47 48 49 50
000
AXUS43 KGID 280702
MISGRI

GID CWA HOURLY WEATHER ROUNDUP
NATIONAL WEATHER SERVICE HASTINGS NE
100 AM CST WED JAN 28 2015

NOTE: "FAIR" INDICATES FEW OR NO CLOUDS BELOW 12,000 FEET WITH NO
SIGNIFICANT WEATHER AND/OR OBSTRUCTIONS TO VISIBILITY.

...SOUTH CENTRAL NEBRASKA...

CITY           SKY/WX    TMP DP  RH WIND       PRES   REMARKS
GRAND ISLAND   PTCLDY    36  29  75 S5        29.90F WCI  32
HASTINGS       PTCLDY    37  29  72 SE5       29.88F WCI  33
KEARNEY        PTCLDY    37  28  70 CALM      29.88F
ORD            CLEAR     31  27  85 SE3       29.87F
YORK           PTCLDY    36  30  80 SE8       29.92S WCI  29
AURORA         PTCLDY    32  28  86 SE7       29.90F WCI  25
LEXINGTON      PTCLDY    31  27  84 CALM      29.89F
HOLDREGE       CLEAR     42  30  64 S7        29.88F
HEBRON         PTCLDY    33  28  81 CALM      29.91F

...NEBRASKA PANHANDLE...

CITY           SKY/WX    TMP DP  RH WIND       PRES   REMARKS
CHADRON        CLEAR     39  29  67 SW8       29.88F WCI  33
ALLIANCE       PTCLDY    37  28  70 SW13      29.93F WCI  29
SCOTTSBLUFF      N/A    N/A N/A N/A MISG      29.96S
SIDNEY         CLEAR     37  27  67 NW14      29.96S WCI  28

...WESTERN AND NORTH CENTRAL NEBRASKA...

CITY           SKY/WX    TMP DP  RH WIND       PRES   REMARKS
VALENTINE      CLEAR     40  31  70 SW10      29.84F WCI  33
AINSWORTH      CLEAR     40  30  69 SW6       29.84F
ONEILL         PTCLDY    38  33  82 S12       29.86F WCI  30
BROKEN BOW     CLEAR     32  27  81 CALM      29.87F
IMPERIAL       PTCLDY    36  26  67 W6        29.89F WCI  31
NORTH PLATTE   CLEAR     28  24  85 NW7       29.89F WCI  21
MCCOOK         PTCLDY    40  28  62 SW5       29.87F

...EASTERN NEBRASKA...

CITY           SKY/WX    TMP DP  RH WIND       PRES   REMARKS
NORFOLK        CLEAR     38  30  73 SE8       29.90F WCI  32
SO SIOUX CITY  PTCLDY    32  29  88 SE8       29.96F WCI  25
TEKAMAH        CLEAR     34  29  82 SE9       29.96F WCI  27
COLUMBUS       PTCLDY    39  27  60 SE8       29.92F WCI  34
ALBION         PTCLDY    35  29  79 SE6       29.90F WCI  30
OMAHA EPPLEY   PTCLDY    39  31  72 SE16      29.98F WCI  30
OFFUTT AFB     CLEAR     37  31  77 E12       29.97F WCI  29
MILLARD        CLEAR     37  31  77 SE5       29.97F WCI  34
LINCOLN        PTCLDY    39  30  70 SE8       29.95F WCI  33
NEBRASKA CITY  CLEAR     38  28  66 SE12      29.98F WCI  30
BEATRICE       PTCLDY    41  31  67 SE7       29.93F
FALLS CITY     CLEAR     38  30  73 SE10      29.98F WCI  31

...NORTHERN KANSAS...

CITY           SKY/WX    TMP DP  RH WIND       PRES   REMARKS
GOODLAND       PTCLDY    41  28  60 SW6       29.90F
HILL CITY      CLEAR     35  25  66 W5        29.89F WCI  31
NORTON         SUNNY     36  25  64 SW7       29.87F WCI  30
PHILLIPSBURG   CLEAR     36  28  75 W6        29.89F WCI  31
SMITH CENTER   CLEAR     37  30  75 E6        29.89F WCI  33
BELOIT         CLEAR     39  32  75 SE3       29.89S
HAYS           CLEAR     48  30  49 SW12      29.91F
RUSSELL        CLEAR     47  33  58 SW9       29.89F
CONCORDIA      CLEAR     42  34  73 SE8       29.89F
SALINA         PTCLDY    44  34  67 S7        29.92S
TOPEKA         CLEAR     42  29  59 SE7       29.99F



USA.gov is the U.S. government's official web portal to all federal, state and local government web resources and services.